Weather History for KSGF - January, 2014

Change the Weather History Date:

Friday, January 3, 2014

  Actual Average Record
Temperature  
Mean Temperature 18 °F 32 °F  
Max Temperature 34 °F 42 °F 72 °F (2004)
Min Temperature 2 °F 23 °F -9 °F (1911)
Degree Days  
Heating Degree Days 47 32  
Month to date heating degree days 131 96  
Since 1 July heating degree days 2054 1906  
Cooling Degree Days 0 0  
Month to date cooling degree days 0 0  
Year to date cooling degree days 0 0  
Moisture  
Dew Point 10 °F    
Average Humidity 67    
Maximum Humidity 86    
Minimum Humidity 47    
Precipitation  
Precipitation 0.00 in 0.09 in 3.85 in (1950)
Month to date precipitation 0.00 0.26  
Year to date precipitation 0.00 0.26  
Snow  
Snow 0.00 in - - ()
Month to date snowfall 2.3  
Since 1 July snowfall 15.8  
Snow Depth 2.00 in    
Sea Level Pressure  
Sea Level Pressure 30.25 in    
Wind  
Wind Speed 17 mph (SSE)    
Max Wind Speed 29 mph    
Max Gust Speed 38 mph    
Visibility 10 miles    
Events      
T = Trace of Precipitation, MM = Missing Value Source: NWS Daily Summary

Daily Weather History Graph

Daily Weather History Graph

Search for Another Location

Airport or City:

Trip Planner

Search our weather history database for the weather conditions in past years. The results will help you decide how hot, cold, wet, or windy it might be!

Date:

Astronomy

Jan. 03, 2014 Rise Set
Actual Time 7:27 AM CST 5:08 PM CST
Civil Twilight 6:58 AM CST 5:37 PM CST
Nautical Twilight 6:26 AM CST 6:10 PM CST
Astronomical Twilight 5:54 AM CST 6:41 PM CST
Moon 8:58 AM CST (1/3) 8:14 PM CST (1/3)
Length of Visible Light 10h 38m
Length of Day
9h 40m
Waxing Crescent, 8% of the Moon is Illuminated
Jan 3
Waxing Crescent
Jan 7
First Quarter
Jan 15
Full
Jan 23
Last Quarter
Jan 30
New

Hourly Weather History & Observations

Time (CST) Temp. Windchill Dew Point Humidity Pressure Visibility Wind Dir Wind Speed Gust Speed Precip Events Conditions
12:52 AM 3.0 °F -6.4 °F -2.9 °F 76% 30.50 in 10.0 mi SSE 4.6 mph - N/A   Clear
1:52 AM 5.0 °F -2.1 °F -0.9 °F 76% 30.50 in 10.0 mi SSE 3.5 mph - N/A   Clear
2:52 AM 3.9 °F -6.9 °F -0.9 °F 80% 30.50 in 10.0 mi SSE 5.8 mph - N/A   Clear
3:52 AM 6.1 °F -5.6 °F -0.9 °F 73% 30.47 in 10.0 mi SSE 6.9 mph - N/A   Clear
4:52 AM 7.0 °F -6.6 °F 1.0 °F 77% 30.45 in 10.0 mi SSE 9.2 mph - N/A   Clear
5:52 AM 7.0 °F -5.7 °F 1.0 °F 77% 30.45 in 10.0 mi SSE 8.1 mph - N/A   Clear
6:52 AM 10.0 °F -6.5 °F 1.9 °F 70% 30.44 in 10.0 mi SSE 15.0 mph - N/A   Clear
7:52 AM 12.0 °F -4.5 °F 3.0 °F 67% 30.43 in 10.0 mi SSE 16.1 mph - N/A   Clear
8:52 AM 14.0 °F -2.5 °F 5.0 °F 67% 30.40 in 10.0 mi SSE 17.3 mph - N/A   Clear
9:52 AM 17.1 °F 1.0 °F 7.0 °F 65% 30.38 in 10.0 mi SSE 18.4 mph - N/A   Clear
10:52 AM 21.0 °F 7.1 °F 9.0 °F 60% 30.36 in 10.0 mi SSE 16.1 mph - N/A   Clear
11:52 AM 25.0 °F 12.2 °F 12.0 °F 58% 30.31 in 10.0 mi SSE 16.1 mph - N/A   Clear
12:52 PM 28.0 °F 15.7 °F 15.1 °F 58% 30.26 in 10.0 mi South 17.3 mph - N/A   Clear
1:52 PM 30.9 °F 19.8 °F 17.1 °F 57% 30.21 in 10.0 mi South 16.1 mph - N/A   Clear
2:52 PM 33.1 °F 20.9 °F 17.1 °F 52% 30.17 in 10.0 mi SSE 21.9 mph - N/A   Clear
3:52 PM 34.0 °F 22.1 °F 17.1 °F 50% 30.13 in 10.0 mi SSE 21.9 mph 27.6 mph N/A   Clear
4:52 PM 34.0 °F 21.8 °F 16.0 °F 48% 30.09 in 10.0 mi SSE 23.0 mph - N/A   Clear
5:52 PM 32.0 °F 19.5 °F 15.1 °F 50% 30.06 in 10.0 mi SSE 21.9 mph - N/A   Clear
6:52 PM 30.9 °F 17.2 °F 15.1 °F 52% 30.03 in 10.0 mi SSE 25.3 mph 34.5 mph N/A   Clear
7:52 PM 30.0 °F 15.7 °F 15.1 °F 54% 30.01 in 10.0 mi SSE 26.5 mph 33.4 mph N/A   Clear
8:52 PM 28.9 °F 14.0 °F 15.1 °F 56% 29.98 in 10.0 mi SSE 27.6 mph 38.0 mph N/A   Clear
9:52 PM 28.0 °F 13.9 °F 15.1 °F 58% 29.98 in 10.0 mi SSE 23.0 mph - N/A   Clear
10:52 PM 28.0 °F 15.3 °F 15.1 °F 58% 30.00 in 10.0 mi SSE 18.4 mph - N/A   Clear
11:52 PM 28.0 °F 16.1 °F 16.0 °F 61% 29.97 in 10.0 mi SSE 16.1 mph 25.3 mph N/A   Clear